Time,TemperatureF,DewpointF,PressureIn,WindDirection,WindDirectionDegrees,WindSpeedMPH,WindSpeedGustMPH,Humidity,HourlyPrecipIn,Conditions,Clouds,dailyrainin,SoftwareType,DateUTC
2013-05-30 00:02:00,75.2,67.9,29.95,West,279,9.0,14.0,78,0.00,,,0.00,Wunderground v.1.15,2013-05-30 05:02:00,
2013-05-30 00:08:00,75.3,67.6,29.95,ESE,119,12.0,14.0,77,0.00,,,0.00,Wunderground v.1.15,2013-05-30 05:08:00,
2013-05-30 00:13:00,75.5,67.8,29.95,SE,126,15.0,18.0,77,0.00,,,0.00,Wunderground v.1.15,2013-05-30 05:13:00,
2013-05-30 00:19:00,75.7,67.6,29.95,SE,136,17.0,18.0,76,0.00,,,0.00,Wunderground v.1.15,2013-05-30 05:19:00,
2013-05-30 00:25:00,75.9,67.4,29.95,West,279,18.0,19.0,75,0.00,,,0.00,Wunderground v.1.15,2013-05-30 05:25:00,
2013-05-30 00:30:00,76.2,67.3,29.95,SE,135,17.0,17.0,74,0.00,,,0.00,Wunderground v.1.15,2013-05-30 05:30:00,
2013-05-30 00:36:00,76.4,67.5,29.95,ESE,120,18.0,23.0,74,0.00,,,0.00,Wunderground v.1.15,2013-05-30 05:36:00,
2013-05-30 00:42:00,76.6,67.3,29.95,West,279,18.0,19.0,73,0.00,,,0.00,Wunderground v.1.15,2013-05-30 05:42:00,
2013-05-30 00:48:00,76.7,67.4,29.95,SE,130,20.0,23.0,73,0.00,,,0.00,Wunderground v.1.15,2013-05-30 05:48:00,
2013-05-30 00:53:00,76.9,67.2,29.95,ESE,122,16.0,22.0,72,0.00,,,0.00,Wunderground v.1.15,2013-05-30 05:53:00,
2013-05-30 00:59:00,77.0,67.3,29.96,SE,131,13.0,22.0,72,0.00,,,0.00,Wunderground v.1.15,2013-05-30 05:59:00,
2013-05-30 01:05:00,77.1,67.4,29.96,SE,143,18.0,23.0,72,0.00,,,0.00,Wunderground v.1.15,2013-05-30 06:05:00,
2013-05-30 01:10:00,77.2,67.5,29.96,West,279,14.0,16.0,72,0.00,,,0.00,Wunderground v.1.15,2013-05-30 06:10:00,
2013-05-30 01:16:00,77.2,67.5,29.96,West,279,17.0,20.0,72,0.00,,,0.00,Wunderground v.1.15,2013-05-30 06:16:00,
2013-05-30 01:21:00,77.1,67.4,29.96,SE,129,23.0,23.0,72,0.00,,,0.00,Wunderground v.1.15,2013-05-30 06:21:00,
2013-05-30 01:27:00,77.1,67.4,29.95,SE,128,16.0,23.0,72,0.00,,,0.00,Wunderground v.1.15,2013-05-30 06:27:00,
2013-05-30 01:33:00,77.0,67.3,29.96,ESE,117,16.0,18.0,72,0.00,,,0.00,Wunderground v.1.15,2013-05-30 06:33:00,
2013-05-30 01:39:00,76.9,67.6,29.95,SE,135,17.0,19.0,73,0.00,,,0.00,Wunderground v.1.15,2013-05-30 06:39:00,
2013-05-30 01:45:00,76.8,67.5,29.96,SE,130,11.0,19.0,73,0.00,,,0.00,Wunderground v.1.15,2013-05-30 06:45:00,
2013-05-30 01:51:00,76.7,67.4,29.95,West,279,9.0,15.0,73,0.00,,,0.00,Wunderground v.1.15,2013-05-30 06:51:00,
2013-05-30 01:56:00,76.6,67.7,29.95,SE,124,23.0,23.0,74,0.00,,,0.00,Wunderground v.1.15,2013-05-30 06:56:00,
2013-05-30 02:01:00,76.6,67.7,29.95,ESE,117,13.0,15.0,74,0.00,,,0.00,Wunderground v.1.15,2013-05-30 07:01:00,
2013-05-30 02:06:00,76.5,67.6,29.95,ESE,114,16.0,22.0,74,0.00,,,0.00,Wunderground v.1.15,2013-05-30 07:06:00,
2013-05-30 02:11:00,76.5,67.6,29.95,ESE,121,11.0,18.0,74,0.00,,,0.00,Wunderground v.1.15,2013-05-30 07:11:00,
2013-05-30 02:16:00,76.4,67.5,29.95,SE,138,15.0,21.0,74,0.00,,,0.00,Wunderground v.1.15,2013-05-30 07:16:00,
2013-05-30 02:21:00,76.5,67.6,29.95,SE,128,17.0,21.0,74,0.00,,,0.00,Wunderground v.1.15,2013-05-30 07:21:00,
2013-05-30 02:26:00,76.5,67.6,29.95,West,279,11.0,21.0,74,0.00,,,0.00,Wunderground v.1.15,2013-05-30 07:26:00,
2013-05-30 02:31:00,76.4,67.5,29.95,SE,124,19.0,19.0,74,0.00,,,0.00,Wunderground v.1.15,2013-05-30 07:31:00,
2013-05-30 02:36:00,76.3,67.8,29.95,SE,134,17.0,22.0,75,0.00,,,0.00,Wunderground v.1.15,2013-05-30 07:36:00,
2013-05-30 02:41:00,76.3,67.8,29.95,SE,124,14.0,18.0,75,0.00,,,0.00,Wunderground v.1.15,2013-05-30 07:41:00,
2013-05-30 02:46:00,76.2,67.7,29.95,SE,127,18.0,21.0,75,0.00,,,0.00,Wunderground v.1.15,2013-05-30 07:46:00,
2013-05-30 02:51:00,76.1,67.6,29.95,West,279,19.0,19.0,75,0.00,,,0.00,Wunderground v.1.15,2013-05-30 07:51:00,
2013-05-30 02:56:00,76.1,67.6,29.94,ESE,122,11.0,24.0,75,0.00,,,0.00,Wunderground v.1.15,2013-05-30 07:56:00,
2013-05-30 03:01:00,76.1,67.6,29.95,SE,126,16.0,17.0,75,0.00,,,0.00,Wunderground v.1.15,2013-05-30 08:01:00,
2013-05-30 03:06:00,76.1,67.6,29.95,SE,126,21.0,21.0,75,0.00,,,0.00,Wunderground v.1.15,2013-05-30 08:06:00,
2013-05-30 03:11:00,76.0,67.5,29.95,ESE,119,17.0,22.0,75,0.00,,,0.00,Wunderground v.1.15,2013-05-30 08:11:00,
2013-05-30 03:16:00,76.0,67.5,29.95,ESE,121,14.0,26.0,75,0.00,,,0.00,Wunderground v.1.15,2013-05-30 08:16:00,
2013-05-30 03:21:00,76.1,67.6,29.94,SE,131,16.0,21.0,75,0.00,,,0.00,Wunderground v.1.15,2013-05-30 08:21:00,
2013-05-30 03:26:00,76.1,67.6,29.94,West,279,12.0,21.0,75,0.00,,,0.00,Wunderground v.1.15,2013-05-30 08:26:00,
2013-05-30 03:31:00,76.0,67.5,29.94,SE,128,16.0,21.0,75,0.00,,,0.00,Wunderground v.1.15,2013-05-30 08:31:00,
2013-05-30 03:36:00,75.9,67.8,29.95,SE,129,14.0,21.0,76,0.00,,,0.00,Wunderground v.1.15,2013-05-30 08:36:00,
2013-05-30 03:41:00,75.9,67.4,29.94,SE,129,19.0,20.0,75,0.00,,,0.00,Wunderground v.1.15,2013-05-30 08:41:00,
2013-05-30 03:46:00,75.8,67.7,29.94,West,279,7.0,22.0,76,0.00,,,0.00,Wunderground v.1.15,2013-05-30 08:46:00,
2013-05-30 03:51:00,75.8,67.7,29.95,SE,133,13.0,24.0,76,0.00,,,0.00,Wunderground v.1.15,2013-05-30 08:51:00,
2013-05-30 03:56:00,75.8,67.7,29.94,West,279,14.0,24.0,76,0.00,,,0.00,Wunderground v.1.15,2013-05-30 08:56:00,
2013-05-30 04:01:00,75.7,67.6,29.95,ESE,102,12.0,21.0,76,0.00,,,0.00,Wunderground v.1.15,2013-05-30 09:01:00,
2013-05-30 04:06:00,75.6,67.5,29.94,ESE,114,14.0,23.0,76,0.00,,,0.00,Wunderground v.1.15,2013-05-30 09:06:00,
2013-05-30 04:11:00,75.5,67.4,29.95,East,81,18.0,18.0,76,0.00,,,0.00,Wunderground v.1.15,2013-05-30 09:11:00,
2013-05-30 04:16:00,75.4,67.3,29.95,ESE,121,18.0,19.0,76,0.00,,,0.00,Wunderground v.1.15,2013-05-30 09:16:00,
2013-05-30 04:21:00,75.4,67.7,29.95,ESE,121,14.0,21.0,77,0.00,,,0.00,Wunderground v.1.15,2013-05-30 09:21:00,
2013-05-30 04:26:00,75.3,67.6,29.95,SE,130,14.0,22.0,77,0.00,,,0.00,Wunderground v.1.15,2013-05-30 09:26:00,
2013-05-30 04:31:00,75.2,67.5,29.95,SE,129,15.0,23.0,77,0.00,,,0.00,Wunderground v.1.15,2013-05-30 09:31:00,
2013-05-30 04:36:00,75.1,67.4,29.95,SE,140,14.0,23.0,77,0.00,,,0.00,Wunderground v.1.15,2013-05-30 09:36:00,
2013-05-30 04:41:00,75.0,67.3,29.95,West,279,20.0,21.0,77,0.00,,,0.00,Wunderground v.1.15,2013-05-30 09:41:00,
2013-05-30 04:47:00,74.9,67.2,29.95,SE,132,12.0,22.0,77,0.00,,,0.00,Wunderground v.1.15,2013-05-30 09:47:00,
2013-05-30 04:52:00,74.9,67.6,29.95,SE,132,21.0,23.0,78,0.00,,,0.00,Wunderground v.1.15,2013-05-30 09:52:00,
2013-05-30 04:57:00,74.8,67.5,29.96,West,279,22.0,24.0,78,0.00,,,0.00,Wunderground v.1.15,2013-05-30 09:57:00,
2013-05-30 05:02:00,74.8,67.5,29.96,SE,126,14.0,21.0,78,0.00,,,0.00,Wunderground v.1.15,2013-05-30 10:02:00,
2013-05-30 05:07:00,74.8,67.5,29.95,SE,134,14.0,21.0,78,0.00,,,0.00,Wunderground v.1.15,2013-05-30 10:07:00,
2013-05-30 05:12:00,74.8,67.5,29.96,SSE,157,12.0,23.0,78,0.00,,,0.00,Wunderground v.1.15,2013-05-30 10:12:00,
2013-05-30 05:17:00,74.8,67.5,29.96,SE,132,15.0,23.0,78,0.00,,,0.00,Wunderground v.1.15,2013-05-30 10:17:00,
2013-05-30 05:22:00,74.8,67.5,29.96,SE,131,20.0,23.0,78,0.00,,,0.00,Wunderground v.1.15,2013-05-30 10:22:00,
2013-05-30 05:27:00,74.8,67.5,29.96,SE,134,18.0,23.0,78,0.00,,,0.00,Wunderground v.1.15,2013-05-30 10:27:00,
2013-05-30 05:32:00,74.9,67.2,29.96,SE,140,24.0,24.0,77,0.00,,,0.00,Wunderground v.1.15,2013-05-30 10:32:00,
2013-05-30 05:37:00,75.0,67.3,29.96,West,279,22.0,25.0,77,0.00,,,0.00,Wunderground v.1.15,2013-05-30 10:37:00,
2013-05-30 05:42:00,74.9,67.2,29.96,ESE,123,16.0,20.0,77,0.00,,,0.00,Wunderground v.1.15,2013-05-30 10:42:00,
2013-05-30 05:47:00,74.8,67.1,29.97,SE,124,18.0,25.0,77,0.00,,,0.00,Wunderground v.1.15,2013-05-30 10:47:00,
2013-05-30 05:52:00,74.8,67.5,29.96,ESE,117,13.0,22.0,78,0.00,,,0.00,Wunderground v.1.15,2013-05-30 10:52:00,
2013-05-30 05:57:00,74.7,67.4,29.97,West,279,13.0,25.0,78,0.00,,,0.00,Wunderground v.1.15,2013-05-30 10:57:00,
2013-05-30 06:02:00,74.7,67.4,29.97,ESE,122,19.0,22.0,78,0.00,,,0.00,Wunderground v.1.15,2013-05-30 11:02:00,
2013-05-30 06:07:00,74.7,67.4,29.97,SE,133,17.0,22.0,78,0.00,,,0.00,Wunderground v.1.15,2013-05-30 11:07:00,
2013-05-30 06:12:00,74.6,67.3,29.97,SE,129,15.0,21.0,78,0.00,,,0.00,Wunderground v.1.15,2013-05-30 11:12:00,
2013-05-30 06:17:00,74.6,67.3,29.97,SE,138,20.0,23.0,78,0.00,,,0.00,Wunderground v.1.15,2013-05-30 11:17:00,
2013-05-30 06:22:00,74.6,67.3,29.97,ESE,111,9.0,23.0,78,0.00,,,0.00,Wunderground v.1.15,2013-05-30 11:22:00,
2013-05-30 06:27:00,74.6,67.7,29.98,SE,128,13.0,23.0,79,0.00,,,0.00,Wunderground v.1.15,2013-05-30 11:27:00,
2013-05-30 06:33:00,74.5,67.6,29.98,West,279,12.0,20.0,79,0.00,,,0.00,Wunderground v.1.15,2013-05-30 11:33:00,
2013-05-30 06:37:00,74.5,67.6,29.98,ESE,113,19.0,24.0,79,0.00,,,0.00,Wunderground v.1.15,2013-05-30 11:37:00,
2013-05-30 06:43:00,74.5,67.6,29.98,SE,139,21.0,24.0,79,0.00,,,0.00,Wunderground v.1.15,2013-05-30 11:43:00,
2013-05-30 06:48:00,74.6,67.7,29.98,SE,133,12.0,24.0,79,0.00,,,0.00,Wunderground v.1.15,2013-05-30 11:48:00,
2013-05-30 06:53:00,74.6,67.7,29.99,SE,130,13.0,22.0,79,0.00,,,0.00,Wunderground v.1.15,2013-05-30 11:53:00,
2013-05-30 06:58:00,74.7,67.8,29.99,SE,127,11.0,22.0,79,0.00,,,0.00,Wunderground v.1.15,2013-05-30 11:58:00,
2013-05-30 07:03:00,74.6,67.3,29.99,ESE,122,18.0,22.0,78,0.00,,,0.00,Wunderground v.1.15,2013-05-30 12:03:00,
2013-05-30 07:08:00,74.6,67.7,29.99,SE,132,15.0,22.0,79,0.00,,,0.00,Wunderground v.1.15,2013-05-30 12:08:00,
2013-05-30 07:13:00,74.7,67.8,29.99,ESE,120,12.0,19.0,79,0.00,,,0.00,Wunderground v.1.15,2013-05-30 12:13:00,
2013-05-30 07:18:00,74.6,67.7,29.99,West,279,19.0,23.0,79,0.00,,,0.00,Wunderground v.1.15,2013-05-30 12:18:00,
2013-05-30 07:23:00,74.6,67.7,29.99,ESE,117,10.0,21.0,79,0.00,,,0.00,Wunderground v.1.15,2013-05-30 12:23:00,
2013-05-30 07:28:00,74.6,67.7,29.99,ESE,115,16.0,22.0,79,0.00,,,0.00,Wunderground v.1.15,2013-05-30 12:28:00,
2013-05-30 07:33:00,74.7,67.8,29.99,West,279,21.0,27.0,79,0.00,,,0.00,Wunderground v.1.15,2013-05-30 12:33:00,
2013-05-30 07:38:00,74.8,67.5,29.99,ESE,119,17.0,27.0,78,0.00,,,0.00,Wunderground v.1.15,2013-05-30 12:38:00,
2013-05-30 07:43:00,75.1,68.1,29.99,SE,128,23.0,23.0,79,0.00,,,0.00,Wunderground v.1.15,2013-05-30 12:43:00,
2013-05-30 07:48:00,75.5,68.2,29.99,ESE,116,11.0,23.0,78,0.00,,,0.00,Wunderground v.1.15,2013-05-30 12:48:00,
2013-05-30 07:53:00,76.1,68.4,29.99,SE,132,19.0,23.0,77,0.00,,,0.00,Wunderground v.1.15,2013-05-30 12:53:00,
2013-05-30 07:58:00,76.7,68.6,29.99,West,279,13.0,23.0,76,0.00,,,0.00,Wunderground v.1.15,2013-05-30 12:58:00,
2013-05-30 08:03:00,77.1,68.6,29.99,SE,124,17.0,28.0,75,0.00,,,0.00,Wunderground v.1.15,2013-05-30 13:03:00,
2013-05-30 08:08:00,77.5,68.9,29.99,ESE,121,15.0,28.0,75,0.00,,,0.00,Wunderground v.1.15,2013-05-30 13:08:00,
2013-05-30 08:13:00,78.1,69.1,29.99,ESE,117,14.0,25.0,74,0.00,,,0.00,Wunderground v.1.15,2013-05-30 13:13:00,
2013-05-30 08:18:00,78.3,68.9,29.99,SE,136,21.0,27.0,73,0.00,,,0.00,Wunderground v.1.15,2013-05-30 13:18:00,
2013-05-30 08:23:00,78.6,68.8,29.99,SE,124,24.0,24.0,72,0.00,,,0.00,Wunderground v.1.15,2013-05-30 13:23:00,
2013-05-30 08:28:00,78.8,69.0,29.99,West,279,21.0,29.0,72,0.00,,,0.00,Wunderground v.1.15,2013-05-30 13:28:00,
2013-05-30 08:33:00,79.2,69.4,29.99,SE,130,18.0,27.0,72,0.00,,,0.00,Wunderground v.1.15,2013-05-30 13:33:00,
2013-05-30 08:38:00,79.6,69.4,29.99,ESE,110,11.0,28.0,71,0.00,,,0.00,Wunderground v.1.15,2013-05-30 13:38:00,
2013-05-30 08:43:00,80.0,69.3,29.99,ESE,113,14.0,24.0,70,0.00,,,0.00,Wunderground v.1.15,2013-05-30 13:43:00,
2013-05-30 08:48:00,80.3,68.8,29.99,ESE,118,22.0,31.0,68,0.00,,,0.00,Wunderground v.1.15,2013-05-30 13:48:00,
2013-05-30 08:53:00,80.4,68.9,29.99,West,279,25.0,30.0,68,0.00,,,0.00,Wunderground v.1.15,2013-05-30 13:53:00,
2013-05-30 08:58:00,80.7,69.6,29.99,West,279,18.0,32.0,69,0.00,,,0.00,Wunderground v.1.15,2013-05-30 13:58:00,
2013-05-30 09:03:00,80.9,69.3,29.99,SE,124,27.0,29.0,68,0.00,,,0.00,Wunderground v.1.15,2013-05-30 14:03:00,
2013-05-30 09:08:00,81.3,69.3,29.99,ESE,112,8.0,29.0,67,0.00,,,0.00,Wunderground v.1.15,2013-05-30 14:08:00,
2013-05-30 09:13:00,81.6,68.7,29.98,ESE,118,16.0,29.0,65,0.00,,,0.00,Wunderground v.1.15,2013-05-30 14:13:00,
2013-05-30 09:18:00,81.7,69.2,29.99,SE,138,27.0,33.0,66,0.00,,,0.00,Wunderground v.1.15,2013-05-30 14:18:00,
2013-05-30 09:23:00,81.7,68.3,29.99,SE,126,23.0,29.0,64,0.00,,,0.00,Wunderground v.1.15,2013-05-30 14:23:00,
2013-05-30 09:28:00,81.5,68.6,29.98,SE,128,28.0,35.0,65,0.00,,,0.00,Wunderground v.1.15,2013-05-30 14:28:00,
2013-05-30 09:33:00,81.4,68.5,29.99,SE,134,30.0,32.0,65,0.00,,,0.00,Wunderground v.1.15,2013-05-30 14:33:00,
2013-05-30 09:38:00,81.5,69.0,29.99,ESE,121,24.0,33.0,66,0.00,,,0.00,Wunderground v.1.15,2013-05-30 14:38:00,
2013-05-30 09:44:00,81.9,68.5,29.98,SE,127,23.0,34.0,64,0.00,,,0.00,Wunderground v.1.15,2013-05-30 14:44:00,
2013-05-30 09:49:00,82.3,68.4,29.98,SE,127,22.0,34.0,63,0.00,,,0.00,Wunderground v.1.15,2013-05-30 14:49:00,
2013-05-30 09:54:00,82.4,69.4,29.98,SE,129,24.0,30.0,65,0.00,,,0.00,Wunderground v.1.15,2013-05-30 14:54:00,
2013-05-30 09:59:00,82.7,69.7,29.98,West,279,25.0,30.0,65,0.00,,,0.00,Wunderground v.1.15,2013-05-30 14:59:00,
2013-05-30 10:04:00,83.2,69.8,29.98,ESE,122,16.0,31.0,64,0.00,,,0.00,Wunderground v.1.15,2013-05-30 15:04:00,
2013-05-30 10:09:00,83.5,69.6,29.98,SE,129,14.0,37.0,63,0.00,,,0.00,Wunderground v.1.15,2013-05-30 15:09:00,
2013-05-30 10:14:00,83.8,69.9,29.98,SE,143,26.0,33.0,63,0.00,,,0.00,Wunderground v.1.15,2013-05-30 15:14:00,
2013-05-30 10:19:00,83.9,69.0,29.98,SSE,159,19.0,38.0,61,0.00,,,0.00,Wunderground v.1.15,2013-05-30 15:19:00,
2013-05-30 10:24:00,83.9,69.0,29.98,SSE,155,33.0,35.0,61,0.00,,,0.00,Wunderground v.1.15,2013-05-30 15:24:00,
2013-05-30 10:29:00,84.1,69.7,29.98,SE,137,18.0,35.0,62,0.00,,,0.00,Wunderground v.1.15,2013-05-30 15:29:00,
2013-05-30 10:34:00,84.6,71.1,29.98,SE,138,17.0,27.0,64,0.00,,,0.00,Wunderground v.1.15,2013-05-30 15:34:00,
2013-05-30 10:39:00,85.2,70.7,29.98,SE,138,33.0,38.0,62,0.00,,,0.00,Wunderground v.1.15,2013-05-30 15:39:00,
2013-05-30 10:44:00,84.8,69.4,29.98,SSE,149,34.0,39.0,60,0.00,,,0.00,Wunderground v.1.15,2013-05-30 15:44:00,
2013-05-30 10:49:00,83.8,68.9,29.98,West,279,32.0,40.0,61,0.00,,,0.00,Wunderground v.1.15,2013-05-30 15:49:00,
2013-05-30 10:54:00,83.1,68.7,29.99,SE,141,18.0,35.0,62,0.00,,,0.00,Wunderground v.1.15,2013-05-30 15:54:00,
2013-05-30 10:59:00,82.9,69.9,29.98,SE,139,27.0,35.0,65,0.00,,,0.00,Wunderground v.1.15,2013-05-30 15:59:00,
2013-05-30 11:04:00,83.4,69.5,29.98,West,279,24.0,30.0,63,0.00,,,0.00,Wunderground v.1.15,2013-05-30 16:04:00,
2013-05-30 11:09:00,83.4,69.5,29.98,West,279,18.0,33.0,63,0.00,,,0.00,Wunderground v.1.15,2013-05-30 16:09:00,
2013-05-30 11:14:00,83.4,69.5,29.98,SE,124,16.0,33.0,63,0.00,,,0.00,Wunderground v.1.15,2013-05-30 16:14:00,
2013-05-30 11:19:00,83.8,69.9,29.98,SE,138,25.0,34.0,63,0.00,,,0.00,Wunderground v.1.15,2013-05-30 16:19:00,
2013-05-30 11:24:00,84.1,70.1,29.98,SSE,150,28.0,33.0,63,0.00,,,0.00,Wunderground v.1.15,2013-05-30 16:24:00,
2013-05-30 11:29:00,84.3,69.4,29.98,SE,142,19.0,33.0,61,0.00,,,0.00,Wunderground v.1.15,2013-05-30 16:29:00,
2013-05-30 11:35:00,84.2,69.3,29.98,West,279,25.0,36.0,61,0.00,,,0.00,Wunderground v.1.15,2013-05-30 16:35:00,
2013-05-30 11:40:00,83.7,68.3,29.98,SSE,148,25.0,28.0,60,0.00,,,0.00,Wunderground v.1.15,2013-05-30 16:40:00,
2013-05-30 11:45:00,83.0,68.6,29.98,SE,130,30.0,40.0,62,0.00,,,0.00,Wunderground v.1.15,2013-05-30 16:45:00,
2013-05-30 11:50:00,82.6,68.7,29.98,West,279,26.0,29.0,63,0.00,,,0.00,Wunderground v.1.15,2013-05-30 16:50:00,
2013-05-30 11:55:00,82.7,68.8,29.99,West,279,23.0,33.0,63,0.00,,,0.00,Wunderground v.1.15,2013-05-30 16:55:00,
2013-05-30 12:00:00,83.2,69.3,29.98,West,279,25.0,25.0,63,0.00,,,0.00,Wunderground v.1.15,2013-05-30 17:00:00,
2013-05-30 12:05:00,83.4,69.9,29.98,SSE,162,26.0,29.0,64,0.00,,,0.00,Wunderground v.1.15,2013-05-30 17:05:00,
2013-05-30 12:10:00,83.9,70.4,29.98,SE,146,27.0,30.0,64,0.00,,,0.00,Wunderground v.1.15,2013-05-30 17:10:00,
2013-05-30 12:16:00,84.5,70.5,29.97,SE,144,22.0,35.0,63,0.00,,,0.00,Wunderground v.1.15,2013-05-30 17:16:00,
2013-05-30 12:21:00,84.9,70.9,29.97,SSE,152,16.0,24.0,63,0.00,,,0.00,Wunderground v.1.15,2013-05-30 17:21:00,
2013-05-30 12:26:00,85.2,70.2,29.98,West,279,20.0,25.0,61,0.00,,,0.00,Wunderground v.1.15,2013-05-30 17:26:00,
2013-05-30 12:31:00,85.2,70.2,29.97,SSE,155,20.0,23.0,61,0.00,,,0.00,Wunderground v.1.15,2013-05-30 17:31:00,
2013-05-30 12:36:00,84.8,70.3,29.97,West,279,20.0,37.0,62,0.00,,,0.00,Wunderground v.1.15,2013-05-30 17:36:00,
2013-05-30 12:41:00,84.7,70.2,29.97,SE,141,29.0,29.0,62,0.00,,,0.00,Wunderground v.1.15,2013-05-30 17:41:00,
2013-05-30 12:46:00,84.7,70.2,29.97,SE,137,21.0,33.0,62,0.00,,,0.00,Wunderground v.1.15,2013-05-30 17:46:00,
2013-05-30 12:51:00,84.4,70.0,29.96,SE,125,17.0,28.0,62,0.00,,,0.00,Wunderground v.1.15,2013-05-30 17:51:00,
2013-05-30 12:56:00,84.0,69.6,29.96,SE,130,23.0,31.0,62,0.00,,,0.00,Wunderground v.1.15,2013-05-30 17:56:00,
2013-05-30 13:01:00,83.7,68.8,29.96,SSE,151,18.0,28.0,61,0.00,,,0.00,Wunderground v.1.15,2013-05-30 18:01:00,
2013-05-30 13:06:00,83.5,69.6,29.96,West,279,29.0,31.0,63,0.00,,,0.00,Wunderground v.1.15,2013-05-30 18:06:00,
2013-05-30 13:12:00,83.6,68.7,29.96,SSE,164,24.0,27.0,61,0.00,,,0.00,Wunderground v.1.15,2013-05-30 18:12:00,
2013-05-30 13:17:00,83.5,68.6,29.95,West,279,30.0,39.0,61,0.00,,,0.00,Wunderground v.1.15,2013-05-30 18:17:00,
2013-05-30 13:22:00,83.7,69.3,29.95,SSE,160,21.0,35.0,62,0.00,,,0.00,Wunderground v.1.15,2013-05-30 18:22:00,
2013-05-30 13:27:00,84.2,69.8,29.95,South,169,26.0,35.0,62,0.00,,,0.00,Wunderground v.1.15,2013-05-30 18:27:00,
2013-05-30 13:32:00,84.2,68.8,29.95,SSE,159,27.0,31.0,60,0.00,,,0.00,Wunderground v.1.15,2013-05-30 18:32:00,
2013-05-30 13:37:00,84.3,69.9,29.95,SSE,166,25.0,31.0,62,0.00,,,0.00,Wunderground v.1.15,2013-05-30 18:37:00,
2013-05-30 13:42:00,85.0,70.0,29.95,West,279,31.0,33.0,61,0.00,,,0.00,Wunderground v.1.15,2013-05-30 18:42:00,
2013-05-30 13:47:00,85.5,70.0,29.95,SSE,157,22.0,33.0,60,0.00,,,0.00,Wunderground v.1.15,2013-05-30 18:47:00,
2013-05-30 13:52:00,86.1,70.1,29.95,West,279,15.0,29.0,59,0.00,,,0.00,Wunderground v.1.15,2013-05-30 18:52:00,
2013-05-30 13:57:00,86.3,70.3,29.94,SE,141,22.0,32.0,59,0.00,,,0.00,Wunderground v.1.15,2013-05-30 18:57:00,
2013-05-30 14:02:00,85.8,69.3,29.95,SE,142,21.0,28.0,58,0.00,,,0.00,Wunderground v.1.15,2013-05-30 19:02:00,
2013-05-30 14:07:00,85.1,70.1,29.94,SSE,147,19.0,29.0,61,0.00,,,0.00,Wunderground v.1.15,2013-05-30 19:07:00,
2013-05-30 14:12:00,84.5,69.6,29.94,SE,143,18.0,27.0,61,0.00,,,0.00,Wunderground v.1.15,2013-05-30 19:12:00,
2013-05-30 14:18:00,84.2,70.2,29.94,SSE,151,15.0,27.0,63,0.00,,,0.00,Wunderground v.1.15,2013-05-30 19:18:00,
2013-05-30 14:23:00,84.1,71.1,29.94,SE,140,7.0,22.0,65,0.00,,,0.00,Wunderground v.1.15,2013-05-30 19:23:00,
2013-05-30 14:28:00,84.5,70.5,29.93,SSE,161,13.0,24.0,63,0.00,,,0.00,Wunderground v.1.15,2013-05-30 19:28:00,
2013-05-30 14:33:00,85.1,71.1,29.94,SE,146,18.0,23.0,63,0.00,,,0.00,Wunderground v.1.15,2013-05-30 19:33:00,
2013-05-30 14:38:00,85.2,70.7,29.94,West,279,23.0,25.0,62,0.00,,,0.00,Wunderground v.1.15,2013-05-30 19:38:00,
2013-05-30 14:43:00,85.0,70.5,29.93,SSE,153,22.0,25.0,62,0.00,,,0.00,Wunderground v.1.15,2013-05-30 19:43:00,
2013-05-30 14:48:00,84.8,70.3,29.92,SE,131,21.0,27.0,62,0.00,,,0.00,Wunderground v.1.15,2013-05-30 19:48:00,
2013-05-30 14:53:00,84.7,70.2,29.92,SSE,165,26.0,26.0,62,0.00,,,0.00,Wunderground v.1.15,2013-05-30 19:53:00,
2013-05-30 14:58:00,85.0,71.0,29.92,SSE,148,17.0,28.0,63,0.00,,,0.00,Wunderground v.1.15,2013-05-30 19:58:00,
2013-05-30 15:03:00,85.4,70.4,29.92,West,279,20.0,30.0,61,0.00,,,0.00,Wunderground v.1.15,2013-05-30 20:03:00,
2013-05-30 15:08:00,85.5,69.5,29.92,SE,138,17.0,34.0,59,0.00,,,0.00,Wunderground v.1.15,2013-05-30 20:08:00,
2013-05-30 15:13:00,84.8,69.4,29.92,West,279,24.0,32.0,60,0.00,,,0.00,Wunderground v.1.15,2013-05-30 20:13:00,
2013-05-30 15:18:00,83.9,69.0,29.91,SE,138,24.0,32.0,61,0.00,,,0.00,Wunderground v.1.15,2013-05-30 20:18:00,
2013-05-30 15:24:00,83.3,68.9,29.92,SE,128,23.0,28.0,62,0.00,,,0.00,Wunderground v.1.15,2013-05-30 20:24:00,
2013-05-30 15:29:00,83.0,69.1,29.91,SE,126,20.0,28.0,63,0.00,,,0.00,Wunderground v.1.15,2013-05-30 20:29:00,
2013-05-30 15:34:00,82.9,69.0,29.91,SE,138,15.0,21.0,63,0.00,,,0.00,Wunderground v.1.15,2013-05-30 20:34:00,
2013-05-30 15:39:00,82.9,69.0,29.91,ESE,111,19.0,33.0,63,0.00,,,0.00,Wunderground v.1.15,2013-05-30 20:39:00,
2013-05-30 15:44:00,83.1,69.2,29.91,SE,143,15.0,30.0,63,0.00,,,0.00,Wunderground v.1.15,2013-05-30 20:44:00,
2013-05-30 15:49:00,83.4,69.9,29.91,West,279,20.0,30.0,64,0.00,,,0.00,Wunderground v.1.15,2013-05-30 20:49:00,
2013-05-30 15:54:00,83.5,70.0,29.90,SSE,150,16.0,20.0,64,0.00,,,0.00,Wunderground v.1.15,2013-05-30 20:54:00,
2013-05-30 15:59:00,83.6,70.6,29.90,SE,132,18.0,20.0,65,0.00,,,0.00,Wunderground v.1.15,2013-05-30 20:59:00,
2013-05-30 16:04:00,83.6,70.1,29.90,SE,135,24.0,27.0,64,0.00,,,0.00,Wunderground v.1.15,2013-05-30 21:04:00,
2013-05-30 16:09:00,83.4,69.9,29.91,SE,142,17.0,28.0,64,0.00,,,0.00,Wunderground v.1.15,2013-05-30 21:09:00,
2013-05-30 16:14:00,83.2,69.8,29.91,SSE,149,23.0,27.0,64,0.00,,,0.00,Wunderground v.1.15,2013-05-30 21:14:00,
2013-05-30 16:19:00,83.3,69.8,29.90,SE,126,14.0,28.0,64,0.00,,,0.00,Wunderground v.1.15,2013-05-30 21:19:00,
2013-05-30 16:24:00,84.0,70.5,29.91,SE,132,16.0,24.0,64,0.00,,,0.00,Wunderground v.1.15,2013-05-30 21:24:00,
2013-05-30 16:29:00,85.1,71.1,29.90,SE,130,20.0,24.0,63,0.00,,,0.00,Wunderground v.1.15,2013-05-30 21:29:00,
2013-05-30 16:34:00,86.1,71.6,29.90,SSE,151,14.0,26.0,62,0.00,,,0.00,Wunderground v.1.15,2013-05-30 21:34:00,
2013-05-30 16:39:00,86.4,70.9,29.90,SE,137,13.0,26.0,60,0.00,,,0.00,Wunderground v.1.15,2013-05-30 21:39:00,
2013-05-30 16:44:00,87.0,70.9,29.89,SE,145,15.0,21.0,59,0.00,,,0.00,Wunderground v.1.15,2013-05-30 21:44:00,
2013-05-30 16:49:00,87.8,71.7,29.89,SE,124,17.0,24.0,59,0.00,,,0.00,Wunderground v.1.15,2013-05-30 21:49:00,
2013-05-30 16:54:00,88.2,70.5,29.89,West,279,18.0,32.0,56,0.00,,,0.00,Wunderground v.1.15,2013-05-30 21:54:00,
2013-05-30 16:59:00,87.9,71.3,29.89,SE,133,19.0,32.0,58,0.00,,,0.00,Wunderground v.1.15,2013-05-30 21:59:00,
2013-05-30 17:04:00,86.9,70.3,29.89,SE,133,21.0,28.0,58,0.00,,,0.00,Wunderground v.1.15,2013-05-30 22:04:00,
2013-05-30 17:09:00,85.9,70.4,29.89,West,279,11.0,28.0,60,0.00,,,0.00,Wunderground v.1.15,2013-05-30 22:09:00,
2013-05-30 17:14:00,85.6,70.1,29.89,SSE,148,16.0,21.0,60,0.00,,,0.00,Wunderground v.1.15,2013-05-30 22:14:00,
2013-05-30 17:19:00,85.5,70.0,29.89,SE,136,17.0,21.0,60,0.00,,,0.00,Wunderground v.1.15,2013-05-30 22:19:00,
2013-05-30 17:24:00,85.3,70.3,29.89,SE,133,9.0,17.0,61,0.00,,,0.00,Wunderground v.1.15,2013-05-30 22:24:00,
2013-05-30 17:29:00,85.2,70.7,29.88,West,279,14.0,21.0,62,0.00,,,0.00,Wunderground v.1.15,2013-05-30 22:29:00,
2013-05-30 17:34:00,84.8,70.3,29.88,SE,138,16.0,21.0,62,0.00,,,0.00,Wunderground v.1.15,2013-05-30 22:34:00,
2013-05-30 17:39:00,84.3,70.3,29.88,West,279,16.0,23.0,63,0.00,,,0.00,Wunderground v.1.15,2013-05-30 22:39:00,
2013-05-30 17:44:00,84.3,69.9,29.88,SE,130,16.0,24.0,62,0.00,,,0.00,Wunderground v.1.15,2013-05-30 22:44:00,
2013-05-30 17:49:00,84.2,69.8,29.88,SE,124,14.0,26.0,62,0.00,,,0.00,Wunderground v.1.15,2013-05-30 22:49:00,
2013-05-30 17:54:00,84.1,69.7,29.88,SE,130,13.0,23.0,62,0.00,,,0.00,Wunderground v.1.15,2013-05-30 22:54:00,
2013-05-30 17:59:00,84.1,69.2,29.88,SSE,148,17.0,28.0,61,0.00,,,0.00,Wunderground v.1.15,2013-05-30 22:59:00,
2013-05-30 18:04:00,84.3,68.9,29.88,SE,142,26.0,30.0,60,0.00,,,0.00,Wunderground v.1.15,2013-05-30 23:04:00,
2013-05-30 18:09:00,84.1,68.7,29.88,SSE,151,17.0,30.0,60,0.00,,,0.00,Wunderground v.1.15,2013-05-30 23:09:00,
2013-05-30 18:14:00,83.8,68.9,29.87,SSE,155,14.0,27.0,61,0.00,,,0.00,Wunderground v.1.15,2013-05-30 23:14:00,
2013-05-30 18:19:00,83.6,68.2,29.87,SSE,147,24.0,29.0,60,0.00,,,0.00,Wunderground v.1.15,2013-05-30 23:19:00,
2013-05-30 18:24:00,83.5,68.2,29.87,SE,138,25.0,35.0,60,0.00,,,0.00,Wunderground v.1.15,2013-05-30 23:24:00,
2013-05-30 18:29:00,83.6,68.2,29.87,West,279,23.0,35.0,60,0.00,,,0.00,Wunderground v.1.15,2013-05-30 23:29:00,
2013-05-30 18:34:00,83.5,68.6,29.87,SE,139,14.0,24.0,61,0.00,,,0.00,Wunderground v.1.15,2013-05-30 23:34:00,
2013-05-30 18:39:00,83.5,68.6,29.87,SE,125,12.0,26.0,61,0.00,,,0.00,Wunderground v.1.15,2013-05-30 23:39:00,
2013-05-30 18:44:00,83.3,68.9,29.87,West,279,14.0,24.0,62,0.00,,,0.00,Wunderground v.1.15,2013-05-30 23:44:00,
2013-05-30 18:49:00,83.0,68.6,29.87,ESE,117,16.0,24.0,62,0.00,,,0.00,Wunderground v.1.15,2013-05-30 23:49:00,
2013-05-30 18:54:00,82.7,68.8,29.88,SE,129,15.0,21.0,63,0.00,,,0.00,Wunderground v.1.15,2013-05-30 23:54:00,
2013-05-30 18:59:00,82.5,68.6,29.87,West,279,12.0,21.0,63,0.00,,,0.00,Wunderground v.1.15,2013-05-30 23:59:00,
2013-05-30 19:04:00,82.3,69.4,29.88,East,82,4.0,20.0,65,0.00,,,0.00,Wunderground v.1.15,2013-05-31 00:04:00,
2013-05-30 19:09:00,82.1,69.6,29.87,ESE,117,15.0,21.0,66,0.00,,,0.00,Wunderground v.1.15,2013-05-31 00:09:00,
2013-05-30 19:14:00,81.8,69.8,29.87,ESE,117,13.0,22.0,67,0.00,,,0.00,Wunderground v.1.15,2013-05-31 00:14:00,
2013-05-30 19:19:00,81.5,69.5,29.88,ESE,111,15.0,24.0,67,0.00,,,0.00,Wunderground v.1.15,2013-05-31 00:19:00,
2013-05-30 19:24:00,81.1,69.5,29.88,West,279,16.0,21.0,68,0.00,,,0.00,Wunderground v.1.15,2013-05-31 00:24:00,
2013-05-30 19:29:00,80.7,69.6,29.89,SE,130,13.0,25.0,69,0.00,,,0.00,Wunderground v.1.15,2013-05-31 00:29:00,
2013-05-30 19:34:00,80.4,69.3,29.88,West,279,14.0,20.0,69,0.00,,,0.00,Wunderground v.1.15,2013-05-31 00:34:00,
2013-05-30 19:39:00,80.1,69.4,29.88,SE,133,18.0,20.0,70,0.00,,,0.00,Wunderground v.1.15,2013-05-31 00:39:00,
2013-05-30 19:44:00,79.3,71.1,29.91,SSE,158,26.0,32.0,76,0.51,,,0.03,Wunderground v.1.15,2013-05-31 00:44:00,
2013-05-30 19:49:00,77.3,70.3,29.92,West,279,17.0,32.0,79,0.23,,,0.05,Wunderground v.1.15,2013-05-31 00:49:00,
2013-05-30 19:54:00,75.6,69.7,29.90,SE,143,17.0,28.0,82,0.43,,,0.09,Wunderground v.1.15,2013-05-31 00:54:00,
2013-05-30 19:59:00,74.4,69.6,29.90,SE,124,11.0,28.0,85,0.09,,,0.09,Wunderground v.1.15,2013-05-31 00:59:00,
2013-05-30 20:04:00,73.6,69.5,29.90,SE,141,16.0,18.0,87,0.05,,,0.09,Wunderground v.1.15,2013-05-31 01:04:00,
2013-05-30 20:09:00,73.0,69.6,29.90,SE,137,16.0,18.0,89,0.04,,,0.09,Wunderground v.1.15,2013-05-31 01:09:00,
2013-05-30 20:14:00,72.7,69.6,29.90,West,279,18.0,18.0,90,0.00,,,0.09,Wunderground v.1.15,2013-05-31 01:14:00,
2013-05-30 20:19:00,72.5,69.4,29.90,SE,136,17.0,18.0,90,0.00,,,0.09,Wunderground v.1.15,2013-05-31 01:19:00,
2013-05-30 20:24:00,72.3,69.5,29.90,West,279,18.0,19.0,91,0.00,,,0.09,Wunderground v.1.15,2013-05-31 01:24:00,
2013-05-30 20:29:00,72.2,69.7,29.90,SE,128,18.0,20.0,92,0.00,,,0.09,Wunderground v.1.15,2013-05-31 01:29:00,
2013-05-30 20:34:00,72.1,69.6,29.91,SE,125,14.0,18.0,92,0.00,,,0.09,Wunderground v.1.15,2013-05-31 01:34:00,
2013-05-30 20:39:00,72.1,70.0,29.91,ESE,121,14.0,19.0,93,0.00,,,0.09,Wunderground v.1.15,2013-05-31 01:39:00,
2013-05-30 20:44:00,72.1,70.0,29.91,ESE,120,16.0,19.0,93,0.00,,,0.09,Wunderground v.1.15,2013-05-31 01:44:00,
2013-05-30 20:49:00,72.1,70.0,29.94,SE,138,45.0,47.0,93,0.33,,,0.11,Wunderground v.1.15,2013-05-31 01:49:00,
2013-05-30 20:54:00,71.3,67.6,29.92,West,279,16.0,47.0,88,0.33,,,0.21,Wunderground v.1.15,2013-05-31 01:54:00,
2013-05-30 20:59:00,70.3,66.6,29.92,SE,137,20.0,47.0,88,0.09,,,0.21,Wunderground v.1.15,2013-05-31 01:59:00,
2013-05-30 21:04:00,69.5,66.1,29.92,SE,134,25.0,27.0,89,0.05,,,0.21,Wunderground v.1.15,2013-05-31 02:04:00,
2013-05-30 21:09:00,68.9,65.8,29.92,SE,142,19.0,27.0,90,0.04,,,0.21,Wunderground v.1.15,2013-05-31 02:09:00,
2013-05-30 21:14:00,68.6,65.9,29.93,SE,136,22.0,24.0,91,0.00,,,0.21,Wunderground v.1.15,2013-05-31 02:14:00,
2013-05-30 21:19:00,68.3,65.6,29.94,West,279,17.0,24.0,91,0.00,,,0.21,Wunderground v.1.15,2013-05-31 02:19:00,
2013-05-30 21:24:00,68.1,65.7,29.94,SE,137,20.0,21.0,92,0.00,,,0.21,Wunderground v.1.15,2013-05-31 02:24:00,
2013-05-30 21:29:00,67.9,65.5,29.94,SE,134,15.0,21.0,92,0.00,,,0.21,Wunderground v.1.15,2013-05-31 02:29:00,
2013-05-30 21:34:00,67.9,65.8,29.94,SE,132,19.0,19.0,93,0.00,,,0.21,Wunderground v.1.15,2013-05-31 02:34:00,
2013-05-30 21:39:00,67.9,65.8,29.94,ESE,116,16.0,19.0,93,0.00,,,0.21,Wunderground v.1.15,2013-05-31 02:39:00,
2013-05-30 21:44:00,67.9,65.8,29.95,SE,128,16.0,19.0,93,0.00,,,0.21,Wunderground v.1.15,2013-05-31 02:44:00,
2013-05-30 21:49:00,67.9,66.1,29.95,SE,130,16.0,19.0,94,0.00,,,0.21,Wunderground v.1.15,2013-05-31 02:49:00,
2013-05-30 21:54:00,67.9,66.1,29.94,SE,124,13.0,18.0,94,0.00,,,0.21,Wunderground v.1.15,2013-05-31 02:54:00,
2013-05-30 21:59:00,68.0,66.2,29.95,SE,128,16.0,18.0,94,0.00,,,0.21,Wunderground v.1.15,2013-05-31 02:59:00,
2013-05-30 22:04:00,68.1,66.3,29.95,SE,136,17.0,21.0,94,0.00,,,0.21,Wunderground v.1.15,2013-05-31 03:04:00,
2013-05-30 22:09:00,68.1,66.3,29.95,West,279,16.0,21.0,94,0.00,,,0.21,Wunderground v.1.15,2013-05-31 03:09:00,
2013-05-30 22:14:00,68.2,66.4,29.95,SE,125,13.0,21.0,94,0.00,,,0.21,Wunderground v.1.15,2013-05-31 03:14:00,
2013-05-30 22:19:00,68.3,66.5,29.95,SE,136,18.0,22.0,94,0.00,,,0.21,Wunderground v.1.15,2013-05-31 03:19:00,
2013-05-30 22:24:00,68.4,66.6,29.96,SSE,151,15.0,21.0,94,0.00,,,0.21,Wunderground v.1.15,2013-05-31 03:24:00,
2013-05-30 22:29:00,68.5,66.7,29.96,SE,139,18.0,21.0,94,0.00,,,0.21,Wunderground v.1.15,2013-05-31 03:29:00,
2013-05-30 22:34:00,68.6,66.8,29.96,SE,127,15.0,21.0,94,0.00,,,0.21,Wunderground v.1.15,2013-05-31 03:34:00,
2013-05-30 22:39:00,68.7,66.9,29.96,SE,129,17.0,21.0,94,0.00,,,0.21,Wunderground v.1.15,2013-05-31 03:39:00,
2013-05-30 22:44:00,68.8,67.0,29.95,ESE,122,8.0,19.0,94,0.00,,,0.21,Wunderground v.1.15,2013-05-31 03:44:00,
2013-05-30 22:49:00,68.8,67.0,29.95,ESE,121,12.0,19.0,94,0.00,,,0.21,Wunderground v.1.15,2013-05-31 03:49:00,
2013-05-30 22:54:00,68.8,67.0,29.95,SE,124,10.0,17.0,94,0.00,,,0.21,Wunderground v.1.15,2013-05-31 03:54:00,
2013-05-30 22:59:00,68.8,67.0,29.95,SE,124,11.0,17.0,94,0.00,,,0.21,Wunderground v.1.15,2013-05-31 03:59:00,
2013-05-30 23:01:00,68.8,67.3,29.95,SE,127,12.0,12.0,95,0.00,,,0.21,Wunderground v.1.15,2013-05-31 04:01:00,
2013-05-30 23:06:00,68.8,67.3,29.95,ESE,119,10.0,15.0,95,0.00,,,0.21,Wunderground v.1.15,2013-05-31 04:06:00,
2013-05-30 23:11:00,68.8,67.3,29.95,ESE,117,12.0,14.0,95,0.00,,,0.21,Wunderground v.1.15,2013-05-31 04:11:00,
2013-05-30 23:16:00,68.8,67.3,29.95,West,279,13.0,16.0,95,0.00,,,0.21,Wunderground v.1.15,2013-05-31 04:16:00,
2013-05-30 23:21:00,68.8,67.3,29.95,ESE,120,13.0,16.0,95,0.00,,,0.21,Wunderground v.1.15,2013-05-31 04:21:00,
2013-05-30 23:26:00,68.8,67.3,29.95,ESE,119,12.0,16.0,95,0.00,,,0.21,Wunderground v.1.15,2013-05-31 04:26:00,
2013-05-30 23:31:00,68.8,67.3,29.94,ESE,116,14.0,14.0,95,0.00,,,0.21,Wunderground v.1.15,2013-05-31 04:31:00,
2013-05-30 23:36:00,68.8,67.3,29.94,West,279,11.0,17.0,95,0.00,,,0.21,Wunderground v.1.15,2013-05-31 04:36:00,
2013-05-30 23:41:00,68.8,67.3,29.95,ESE,120,11.0,14.0,95,0.00,,,0.21,Wunderground v.1.15,2013-05-31 04:41:00,
2013-05-30 23:46:00,68.8,67.3,29.95,SE,128,14.0,17.0,95,0.00,,,0.21,Wunderground v.1.15,2013-05-31 04:46:00,
2013-05-30 23:51:00,68.8,67.3,29.94,ESE,119,12.0,17.0,95,0.00,,,0.21,Wunderground v.1.15,2013-05-31 04:51:00,
2013-05-30 23:56:00,68.7,66.9,29.94,ESE,122,14.0,17.0,94,0.00,,,0.21,Wunderground v.1.15,2013-05-31 04:56:00,